Weather History for Ambler, AK

Change the Weather History Date:

Friday, December 7, 2012

  Actual Average Record
Temperature  
Mean Temperature -18 °F -  
Max Temperature -11 °F 3 °F 37 °F (2013)
Min Temperature -25 °F -2 °F -38 °F (1981)
Degree Days  
Heating Degree Days 83    
Moisture  
Dew Point -23 °F    
Average Humidity 72    
Maximum Humidity 100    
Minimum Humidity 53    
Precipitation  
Precipitation 0.00 in - - ()
Sea Level Pressure  
Sea Level Pressure 30.26 in    
Wind  
Wind Speed 0 mph (North)    
Max Wind Speed 0 mph    
Max Gust Speed -    
Visibility 10 miles    
Events      
Averages and records for this station are not official NWS values.
T = Trace of Precipitation, MM = Missing Value Source: NWS Daily Summary

Daily Weather History Graph

Daily Weather History Graph

Search for Another Location

Airport:

Trip Planner

Search our weather history database for the weather conditions in past years. The results will help you decide how hot, cold, wet, or windy it might be!

Date:

Astronomy

Dec. 07, 2012 Rise Set
Actual Time 12:11 PM AKST 2:34 PM AKST
Civil Twilight 10:20 AM AKST 4:25 PM AKST
Nautical Twilight 9:00 AM AKST 5:45 PM AKST
Astronomical Twilight 7:52 AM AKST 6:53 PM AKST
Moon 2:29 AM AKST (12/7) 1:37 PM AKST (12/7)
Length of Visible Light 6h 04m
Length of Day
2h 23m
Last Quarter, 37% of the Moon is Illuminated
Dec 7
Last Quarter
Dec 12
New
Dec 19
First Quarter
Dec 28
Full
Jan 4
Last Quarter

Hourly Weather History & Observations

Time (AKST) Temp. Dew Point Humidity Pressure Visibility Wind Dir Wind Speed Gust Speed Precip Events Conditions
12:16 AM -18.4 °F -27.4 °F 63% 30.28 in 10.0 mi Calm Calm - N/A   Clear
12:36 AM -20.2 °F -29.2 °F 63% 30.28 in 10.0 mi Calm Calm - N/A   Clear
12:56 AM -16.6 °F -27.4 °F 58% 30.28 in 10.0 mi Calm Calm - N/A   Clear
1:16 AM -18.4 °F -23.8 °F 76% 30.28 in 10.0 mi Calm Calm - N/A   Clear
1:36 AM -16.6 °F -27.4 °F 58% 30.28 in 10.0 mi Calm Calm - N/A   Clear
1:56 AM -16.6 °F -23.8 °F 70% 30.28 in 10.0 mi Calm Calm - N/A   Clear
2:16 AM -16.6 °F -23.8 °F 70% 30.28 in 10.0 mi Calm Calm - N/A   Clear
2:36 AM -14.8 °F -25.6 °F 58% 30.29 in 10.0 mi Calm Calm - N/A   Clear
2:56 AM -18.4 °F -23.8 °F 76% 30.29 in 10.0 mi Calm Calm - N/A   Clear
3:16 AM -22.0 °F - N/A% 30.29 in 10.0 mi Calm Calm - N/A   Clear
3:36 AM -18.4 °F - N/A% 30.28 in 10.0 mi Calm Calm - N/A   Clear
3:56 AM -16.6 °F -20.2 °F 84% 30.28 in 10.0 mi Calm Calm - N/A   Clear
4:16 AM -16.6 °F -20.2 °F 84% 30.27 in 10.0 mi Calm Calm - N/A   Clear
4:36 AM -16.6 °F -27.4 °F 58% 30.28 in 10.0 mi Calm Calm - N/A   Clear
4:56 AM -18.4 °F -29.2 °F 58% 30.27 in 10.0 mi Calm Calm - N/A   Clear
5:16 AM -18.4 °F -25.6 °F 70% 30.27 in 10.0 mi Calm Calm - N/A   Clear
5:36 AM -16.6 °F - N/A% 30.27 in 10.0 mi Calm Calm - N/A   Clear
5:56 AM -14.8 °F -22.0 °F 70% 30.26 in 10.0 mi Calm Calm - N/A   Clear
6:16 AM -13.0 °F -13.0 °F 100% 30.26 in 10.0 mi Calm Calm - N/A   Clear
6:36 AM -11.2 °F -23.8 °F 54% 30.27 in 10.0 mi Calm Calm - N/A   Clear
6:56 AM -14.8 °F -23.8 °F 64% 30.27 in 10.0 mi Calm Calm - N/A   Clear
7:16 AM -20.2 °F - N/A% 30.27 in 10.0 mi Calm Calm - N/A   Clear
7:36 AM -23.8 °F - N/A% 30.27 in 10.0 mi Calm Calm - N/A   Clear
7:56 AM -23.8 °F - N/A% 30.27 in 10.0 mi Calm Calm - N/A   Clear
8:16 AM -22.0 °F - N/A% 30.27 in 10.0 mi Calm Calm - N/A   Clear
8:36 AM -20.2 °F -27.4 °F 69% 30.27 in 10.0 mi Calm Calm - N/A   Clear
8:56 AM -20.2 °F -25.6 °F 76% 30.27 in 10.0 mi Calm Calm - N/A   Clear
9:16 AM -20.2 °F - N/A% 30.26 in 10.0 mi Calm Calm - N/A   Clear
9:36 AM -18.4 °F - N/A% 30.26 in 10.0 mi Calm Calm - N/A   Clear
9:56 AM -14.8 °F -16.6 °F 92% 30.26 in 10.0 mi Calm Calm - N/A   Clear
10:16 AM -11.2 °F -14.8 °F 84% 30.26 in 10.0 mi Calm Calm - N/A   Clear
10:36 AM -14.8 °F -27.4 °F 53% 30.27 in 10.0 mi Calm Calm - N/A   Clear
10:56 AM -20.2 °F - N/A% 30.28 in 10.0 mi Calm Calm - N/A   Clear
11:16 AM -22.0 °F - N/A% 30.28 in 10.0 mi Calm Calm - N/A   Clear
11:36 AM -23.8 °F - N/A% 30.28 in 10.0 mi Calm Calm - N/A   Clear
11:56 AM -22.0 °F - N/A% 30.29 in 10.0 mi Calm Calm - N/A   Clear
12:16 PM -20.2 °F -25.6 °F 76% 30.28 in 9.0 mi Calm Calm - N/A   Clear
12:36 PM -20.2 °F -27.4 °F 69% 30.28 in 10.0 mi Calm Calm - N/A   Clear
12:56 PM -14.8 °F -20.2 °F 77% 30.27 in 10.0 mi Calm Calm - N/A   Clear
1:16 PM -13.0 °F -13.0 °F 100% 30.27 in 10.0 mi Calm Calm - N/A   Clear
1:36 PM -13.0 °F -25.6 °F 53% 30.27 in 10.0 mi Calm Calm - N/A   Clear
1:56 PM -23.8 °F - N/A% 30.27 in 10.0 mi Calm Calm - N/A   Clear
2:16 PM -16.6 °F - N/A% 30.26 in 10.0 mi Calm Calm - N/A   Clear
2:36 PM -16.6 °F -16.6 °F 100% 30.26 in 10.0 mi Calm Calm - N/A   Clear
2:56 PM -18.4 °F -27.4 °F 63% 30.25 in 10.0 mi Calm Calm - N/A   Clear
3:16 PM -16.6 °F - N/A% 30.25 in 10.0 mi Calm Calm - N/A   Clear
3:36 PM -14.8 °F -18.4 °F 84% 30.25 in 10.0 mi Calm Calm - N/A   Clear
3:56 PM -14.8 °F -20.2 °F 77% 30.24 in 10.0 mi Calm Calm - N/A   Clear
4:16 PM -11.2 °F -20.2 °F 64% 30.23 in 10.0 mi Calm Calm - N/A   Clear
4:36 PM -13.0 °F -23.8 °F 59% 30.23 in 10.0 mi Calm Calm - N/A   Clear
4:56 PM -14.8 °F -25.6 °F 58% 30.22 in 10.0 mi Calm Calm - N/A   Clear
5:16 PM -13.0 °F -18.4 °F 77% 30.22 in 10.0 mi Calm Calm - N/A   Clear
5:36 PM -18.4 °F -25.6 °F 70% 30.22 in 10.0 mi Calm Calm - N/A   Clear
5:56 PM -23.8 °F - N/A% 30.23 in 10.0 mi Calm Calm - N/A   Clear
6:16 PM -25.6 °F - N/A% 30.23 in 10.0 mi Calm Calm - N/A   Clear
6:36 PM -25.6 °F - N/A% 30.23 in 10.0 mi Calm Calm - N/A   Clear
6:56 PM -25.6 °F - N/A% 30.23 in 10.0 mi Calm Calm - N/A   Clear
7:16 PM -23.8 °F - N/A% 30.23 in 10.0 mi Calm Calm - N/A   Clear
7:36 PM -22.0 °F -27.4 °F 76% 30.22 in 10.0 mi Calm Calm - N/A   Clear
7:56 PM -20.2 °F -25.6 °F 76% 30.22 in 10.0 mi Calm Calm - N/A   Clear
8:16 PM -20.2 °F -29.2 °F 63% 30.22 in 10.0 mi Calm Calm - N/A   Clear
8:36 PM -16.6 °F -23.8 °F 70% 30.21 in 10.0 mi Calm Calm - N/A   Clear
8:56 PM -22.0 °F - N/A% 30.22 in 10.0 mi Calm Calm - N/A   Clear
9:16 PM -22.0 °F - N/A% 30.23 in 10.0 mi Calm Calm - N/A   Clear
9:36 PM -20.2 °F - N/A% 30.23 in 10.0 mi Calm Calm - N/A   Clear
9:56 PM -18.4 °F -23.8 °F 76% 30.22 in 10.0 mi Calm Calm - N/A   Clear
10:16 PM -18.4 °F -23.8 °F 76% 30.22 in 10.0 mi Calm Calm - N/A   Clear
10:36 PM -16.6 °F -27.4 °F 58% 30.22 in 10.0 mi Calm Calm - N/A   Clear
10:56 PM -20.2 °F -25.6 °F 76% 30.22 in 10.0 mi Calm Calm - N/A   Clear
11:16 PM -16.6 °F - N/A% 30.22 in 10.0 mi Calm Calm - N/A   Clear
11:36 PM -14.8 °F -14.8 °F 100% 30.22 in 10.0 mi Calm Calm - N/A   Clear
11:56 PM -13.0 °F -20.2 °F 70% 30.21 in 10.0 mi Calm Calm - N/A   Clear